カタログに戻る

FENGYUN 1C DEB

運用中SSO
NORAD 30510·DEBRIS·🇨🇳 China

打ち上げ May 10, 1999 から Taiyuan Satellite Launch Center

Loading…

次のパス (今後24時間)

TLE

最新Source: Space-Track

元期: Sep 14, 2026, 01:20 UTC

1 30510U 99025AHY 26257.05616071  .00001457  00000-0  76734-3 0  9999
2 30510  99.2331 283.0781 0078947 114.2253 272.9825 14.14042318  4614

AllMySatでFENGYUN 1C DEBをリアルタイム追跡

Download on the App Store